| time (UTC) | temp C | wind direction | speed KPH | gust KPH | rain 1hr cm | rain 24hr cm | rain mn cm | humidity % | barometer mb |
| 20260510054502 | 7 | 144 | 1.6 | 4.8 | 0.00 | 1.09 | 0.00 | 99 | 1011.8 |
| 20260510053003 | 7 | 208 | 1.6 | 4.8 | 0.00 | 1.09 | 0.00 | 98 | 1012.0 |
| 20260510051502 | 6 | 212 | 0.0 | 3.2 | 0.00 | 1.09 | 0.00 | 98 | 1011.9 |
| 20260510041502 | 5 | 169 | 0.0 | 0.0 | 0.00 | 1.12 | 0.00 | 97 | 1011.1 |
| 20260510034503 | 5 | 169 | 0.0 | 1.6 | 0.00 | 1.12 | 1.12 | 97 | 1011.2 |
| 20260510033003 | 5 | 169 | 0.0 | 1.6 | 0.00 | 1.12 | 1.12 | 97 | 1011.1 |
| 20260510031502 | 5 | 169 | 0.0 | 1.6 | 0.00 | 1.12 | 1.12 | 97 | 1011.1 |
| 20260510030004 | 6 | 169 | 0.0 | 1.6 | 0.00 | 1.12 | 1.12 | 97 | 1011.0 |
| 20260510023002 | 6 | 169 | 0.0 | 1.6 | 0.00 | 1.12 | 1.12 | 96 | 1011.1 |
| 20260510021505 | 6 | 169 | 0.0 | 3.2 | 0.00 | 1.12 | 1.12 | 96 | 1011.1 |
| 20260510020002 | 6 | 169 | 0.0 | 0.0 | 0.00 | 1.12 | 1.12 | 96 | 1011.1 |
| 20260510014503 | 7 | 169 | 0.0 | 1.6 | 0.00 | 1.12 | 1.12 | 95 | 1011.1 |
| 20260510011504 | 7 | 169 | 1.6 | 1.6 | 0.00 | 1.12 | 1.12 | 95 | 1010.7 |
| 20260510010004 | 8 | 169 | 0.0 | 1.6 | 0.00 | 1.12 | 1.12 | 94 | 1010.6 |
| 20260510004504 | 8 | 169 | 0.0 | 1.6 | 0.00 | 1.12 | 1.12 | 94 | 1010.3 |
| 20260510003004 | 9 | 169 | 0.0 | 4.8 | 0.00 | 1.12 | 1.12 | 94 | 1010.2 |
| 20260510001503 | 10 | 169 | 1.6 | 4.8 | 0.00 | 1.12 | 1.12 | 93 | 1010.3 |
| 20260510000003 | 10 | 187 | 1.6 | 4.8 | 0.00 | 1.14 | 1.12 | 93 | 1010.0 |
| 20260509234503 | 11 | 194 | 3.2 | 4.8 | 0.00 | 1.14 | 1.12 | 92 | 1009.8 |
| 20260509230003 | 11 | 158 | 3.2 | 14.5 | 0.00 | 1.14 | 1.12 | 90 | 1009.3 |
| 20260509224507 | 11 | 225 | 4.8 | 16.1 | 0.00 | 1.14 | 1.12 | 91 | 1009.6 |
| 20260509223003 | 11 | 213 | 8.0 | 11.3 | 0.00 | 1.14 | 1.12 | 91 | 1009.6 |
| 20260509221507 | 11 | 224 | 1.6 | 8.0 | 0.00 | 1.14 | 1.12 | 94 | 1009.6 |
| 20260509214505 | 11 | 193 | 3.2 | 16.1 | 0.00 | 1.14 | 1.12 | 94 | 1010.0 |
| 20260509213005 | 11 | 267 | 4.8 | 19.3 | 0.00 | 1.14 | 1.12 | 96 | 1010.0 |
| 20260509211511 | 11 | 223 | 3.2 | 16.1 | 0.00 | 1.14 | 1.12 | 96 | 1010.1 |
| 20260509210004 | 11 | 235 | 6.4 | 19.3 | 0.00 | 1.14 | 1.12 | 96 | 1010.2 |
| 20260509204503 | 11 | 198 | 6.4 | 16.1 | 0.03 | 1.14 | 1.12 | 97 | 1010.2 |
| 20260509203004 | 10 | 213 | 8.0 | 11.3 | 0.05 | 1.14 | 1.12 | 98 | 1010.2 |
| 20260509201506 | 10 | 249 | 3.2 | 8.0 | 0.13 | 1.14 | 1.12 | 98 | 1010.2 |
| 20260509200008 | 10 | 241 | 3.2 | 8.0 | 0.15 | 1.14 | 1.12 | 98 | 1010.3 |
| 20260509194504 | 9 | 195 | 1.6 | 9.7 | 0.18 | 1.12 | 1.09 | 98 | 1010.7 |
| 20260509193003 | 9 | 225 | 4.8 | 19.3 | 0.23 | 1.09 | 1.07 | 97 | 1011.0 |
| 20260509191505 | 9 | 222 | 4.8 | 19.3 | 0.20 | 1.02 | 0.99 | 98 | 1011.2 |
| 20260509190005 | 9 | 201 | 3.2 | 9.7 | 0.23 | 0.99 | 0.97 | 98 | 1011.3 |
| 20260509184503 | 9 | 187 | 3.2 | 22.5 | 0.25 | 0.94 | 0.91 | 97 | 1011.2 |
| 20260509181515 | 9 | 159 | 6.4 | 14.5 | 0.25 | 0.81 | 0.79 | 98 | 1011.5 |
| 20260509180021 | 9 | 237 | 4.8 | 20.9 | 0.25 | 0.76 | 0.74 | 98 | 1011.4 |
| 20260509171503 | 9 | 182 | 8.0 | 19.3 | 0.10 | 0.56 | 0.53 | 97 | 1011.4 |
| 20260509170008 | 9 | 164 | 3.2 | 14.5 | 0.08 | 0.53 | 0.48 | 97 | 1011.4 |
| 20260509164505 | 10 | 239 | 4.8 | 19.3 | 0.08 | 0.51 | 0.46 | 97 | 1011.5 |
| 20260509163004 | 10 | 211 | 6.4 | 19.3 | 0.05 | 0.48 | 0.43 | 98 | 1011.5 |
| 20260509161514 | 9 | 172 | 6.4 | 19.3 | 0.08 | 0.48 | 0.43 | 97 | 1011.6 |
| 20260509154503 | 10 | 151 | 3.2 | 14.5 | 0.05 | 0.43 | 0.38 | 98 | 1011.7 |
| 20260509153005 | 9 | 173 | 3.2 | 8.0 | 0.10 | 0.43 | 0.38 | 98 | 1011.7 |
| 20260509151504 | 9 | 162 | 4.8 | 11.3 | 0.10 | 0.41 | 0.36 | 98 | 1011.7 |
| 20260509150004 | 9 | 154 | 3.2 | 8.0 | 0.13 | 0.41 | 0.36 | 98 | 1011.5 |
| 20260509143003 | 8 | 178 | 1.6 | 9.7 | 0.05 | 0.33 | 0.28 | 98 | 1012.4 |
| 20260509141504 | 8 | 163 | 1.6 | 4.8 | 0.05 | 0.30 | 0.25 | 98 | 1012.1 |
| 20260509134503 | 8 | 160 | 1.6 | 3.2 | 0.03 | 0.28 | 0.23 | 99 | 1011.9 |
| 20260509131503 | 8 | 160 | 1.6 | 9.7 | 0.03 | 0.25 | 0.20 | 99 | 1011.6 |
| 20260509130004 | 8 | 167 | 0.0 | 3.2 | 0.03 | 0.25 | 0.20 | 98 | 1011.9 |
| 20260509124503 | 8 | 169 | 3.2 | 9.7 | 0.05 | 0.25 | 0.20 | 98 | 1011.8 |
| 20260509123003 | 7 | 138 | 3.2 | 4.8 | 0.03 | 0.23 | 0.18 | 99 | 1011.7 |
| 20260509121503 | 7 | 159 | 1.6 | 4.8 | 0.03 | 0.23 | 0.18 | 99 | 1012.1 |
| 20260509120005 | 7 | 153 | 1.6 | 3.2 | 0.05 | 0.23 | 0.18 | 99 | 1011.9 |
| 20260509114503 | 7 | 153 | 0.0 | 1.6 | 0.03 | 0.20 | 0.15 | 98 | 1012.0 |
| 20260509113004 | 7 | 153 | 0.0 | 1.6 | 0.05 | 0.20 | 0.15 | 98 | 1012.0 |
| 20260509111504 | 7 | 153 | 1.6 | 3.2 | 0.05 | 0.20 | 0.15 | 98 | 1012.1 |
| 20260509110003 | 6 | 153 | 0.0 | 1.6 | 0.03 | 0.18 | 0.13 | 98 | 1012.0 |
| 20260509104504 | 6 | 153 | 0.0 | 3.2 | 0.03 | 0.18 | 0.13 | 98 | 1011.9 |
| 20260509103004 | 6 | 153 | 1.6 | 3.2 | 0.00 | 0.15 | 0.10 | 98 | 1011.9 |
| 20260509100004 | 6 | 153 | 0.0 | 0.0 | 0.00 | 0.15 | 0.10 | 98 | 1011.9 |
| 20260509094503 | 6 | 153 | 0.0 | 1.6 | 0.00 | 0.15 | 0.10 | 98 | 1011.9 |
| 20260509093004 | 6 | 153 | 0.0 | 1.6 | 0.00 | 0.15 | 0.10 | 98 | 1012.0 |
| 20260509091503 | 6 | 153 | 0.0 | 1.6 | 0.00 | 0.15 | 0.10 | 98 | 1012.3 |
| 20260509084504 | 6 | 153 | 0.0 | 1.6 | 0.00 | 0.15 | 0.10 | 98 | 1012.6 |
| 20260509083004 | 6 | 153 | 1.6 | 1.6 | 0.00 | 0.15 | 0.10 | 98 | 1012.8 |
| 20260509081504 | 6 | 153 | 0.0 | 1.6 | 0.00 | 0.15 | 0.10 | 98 | 1012.9 |
| 20260509080004 | 6 | 153 | 0.0 | 1.6 | 0.00 | 0.15 | 0.10 | 98 | 1012.7 |
| 20260509074504 | 6 | 153 | 0.0 | 1.6 | 0.00 | 0.15 | 0.10 | 98 | 1013.0 |
| 20260509071504 | 6 | 153 | 0.0 | 4.8 | 0.03 | 0.15 | 0.10 | 98 | 1012.8 |
| 20260509070004 | 6 | 158 | 3.2 | 4.8 | 0.05 | 0.15 | 0.10 | 98 | 1012.7 |
| 20260509064504 | 6 | 207 | 0.0 | 4.8 | 0.08 | 0.15 | 0.10 | 97 | 1012.7 |
| 20260509063004 | 6 | 207 | 1.6 | 3.2 | 0.05 | 0.13 | 0.08 | 97 | 1013.0 |
| 20260509061504 | 6 | 207 | 1.6 | 3.2 | 0.05 | 0.13 | 0.08 | 97 | 1013.6 |